This demonstration page uses our WeatherBlox Daily Observations layout. Learn more.

Left ArrowRight Arrow

Hourly Observations for January 31, 2018

Temp ( °F °C ) Dew Point ( °F °C ) Humidity (%) Winds ( mph kmh ) Pressure ( in mb ) Visibility ( mi km ) Precip ( " mm )
12:15 am 00:15 Partly Cloudy 28 -2 21 -6 74 74 S 10 17 30.24 1024 10 16 N/A
12:35 am 00:35 Partly Cloudy 28 -2 21 -6 74 74 S 10 17 30.24 1024 10 16 N/A
12:55 am 00:55 Clear 28 -2 21 -6 74 74 S 12 19 30.24 1024 10 16 N/A
1:15 am 01:15 Partly Cloudy 28 -2 21 -6 74 74 S 10 17 30.24 1024 10 16 N/A
1:35 am 01:35 Partly Cloudy 28 -2 21 -6 74 74 S 13 20 30.24 1024 10 16 N/A
1:55 am 01:55 Partly Cloudy 28 -2 21 -6 74 74 S 16 26 30.21 1023 10 16 N/A
3:35 am 03:35 Partly Cloudy 28 -2 21 -6 74 74 S 16 26 30.15 1021 10 16 N/A
3:55 am 03:55 Clear 28 -2 21 -6 74 74 S 16 26 30.15 1021 10 16 N/A
4:15 am 04:15 Clear 28 -2 21 -6 74 74 S 16 26 30.15 1021 10 16 N/A
4:35 am 04:35 Clear 28 -2 21 -6 74 74 S 17 28 30.15 1021 10 16 N/A
4:55 am 04:55 Clear 28 -2 21 -6 74 74 S 16 26 30.15 1021 10 16 N/A
5:15 am 05:15 Clear 28 -2 21 -6 74 74 S 16 26 30.12 1020 10 16 N/A
5:35 am 05:35 Clear 28 -2 21 -6 74 74 S 18 30 30.12 1020 10 16 N/A
5:55 am 05:55 Clear 28 -2 21 -6 74 74 S 15 24 30.09 1019 10 16 N/A
6:15 am 06:15 Clear 28 -2 21 -6 74 74 S 17 28 30.09 1019 10 16 N/A
6:35 am 06:35 Clear 28 -2 21 -6 74 74 S 18 30 30.06 1018 10 16 N/A
6:55 am 06:55 Clear 28 -2 21 -6 74 74 S 15 24 30.06 1018 10 16 N/A
7:15 am 07:15 Clear 28 -2 21 -6 74 74 S 14 22 30.06 1018 10 16 N/A
7:35 am 07:35 Partly Cloudy 30 -1 21 -6 69 69 S 17 28 30.03 1017 10 16 N/A
7:55 am 07:55 Mostly Cloudy 30 -1 21 -6 69 69 S 14 22 30.03 1017 10 16 N/A
8:15 am 08:15 Sunny 30 -1 23 -5 75 75 S 16 26 30.03 1017 10 16 N/A
8:35 am 08:35 Sunny 30 -1 23 -5 75 75 S 15 24 30.03 1017 10 16 N/A
8:55 am 08:55 Sunny 30 -1 23 -5 75 75 S 17 28 30.00 1016 10 16 N/A
9:15 am 09:15 Sunny 30 -1 23 -5 75 75 SSW 15 24 30.00 1016 10 16 N/A
9:35 am 09:35 Sunny 32 undefined 23 -5 69 69 S 15 24 30.00 1016 10 16 N/A
9:55 am 09:55 Sunny 32 undefined 23 -5 69 69 S 12 19 30.00 1016 10 16 N/A
10:15 am 10:15 Sunny 32 undefined 25 -4 75 75 S 13 20 29.97 1015 10 16 N/A
10:35 am 10:35 Sunny 36 2 25 -4 65 65 S 13 20 29.97 1015 10 16 N/A
10:55 am 10:55 Sunny 37 3 25 -4 60 60 SSW 18 30 29.94 1014 10 16 N/A
11:15 am 11:15 Sunny 39 4 25 -4 56 56 SSW 18 30 29.91 1013 10 16 N/A
11:35 am 11:35 Sunny 39 4 27 -3 61 61 SSW 18 30 29.91 1013 10 16 N/A
11:55 am 11:55 Sunny 41 5 27 -3 57 57 SSW 17 28 29.91 1013 10 16 N/A
12:15 pm 12:15 Sunny 43 6 28 -2 57 57 SSW 15 24 29.88 1012 10 16 N/A
12:35 pm 12:35 Sunny 45 7 28 -2 53 53 SW 17 28 29.85 1011 10 16 N/A
12:55 pm 12:55 Sunny 46 8 30 -1 53 53 SW 21 33 29.85 1011 10 16 N/A
1:15 pm 13:15 Sunny 46 8 30 -1 53 53 SW 17 28 29.85 1011 10 16 N/A
1:35 pm 13:35 Sunny 48 9 32 undefined 54 54 WSW 20 31 29.83 1010 10 16 N/A
1:55 pm 13:55 Sunny 48 9 32 undefined 54 54 WSW 23 37 29.83 1010 10 16 N/A
2:15 pm 14:15 Sunny 48 9 32 undefined 54 54 WSW 25 41 29.83 1010 10 16 N/A
2:35 pm 14:35 Sunny 46 8 32 undefined 57 57 WSW 23 37 29.83 1010 10 16 N/A
2:55 pm 14:55 Sunny 46 8 32 undefined 57 57 WSW 20 31 29.83 1010 10 16 N/A
3:15 pm 15:15 Sunny 46 8 32 undefined 57 57 SW 21 33 29.83 1010 10 16 N/A
3:35 pm 15:35 Sunny 46 8 32 undefined 57 57 SW 23 37 29.83 1010 10 16 N/A
3:55 pm 15:55 Sunny 46 8 32 undefined 57 57 WSW 14 22 29.83 1010 10 16 N/A
4:15 pm 16:15 Sunny 46 8 32 undefined 57 57 SW 15 24 29.83 1010 10 16 N/A
4:35 pm 16:35 Sunny 46 8 32 undefined 57 57 SW 15 24 29.83 1010 10 16 N/A
4:55 pm 16:55 Sunny 46 8 32 undefined 57 57 SW 14 22 29.83 1010 10 16 N/A
5:15 pm 17:15 Sunny 46 8 34 1 62 62 SW 14 22 29.83 1010 10 16 N/A
5:35 pm 17:35 Sunny 45 7 32 undefined 61 61 SW 8 13 29.83 1010 10 16 N/A
5:55 pm 17:55 Sunny 43 6 32 undefined 66 66 SW 8 13 29.83 1010 10 16 N/A
6:15 pm 18:15 Clear 41 5 32 undefined 70 70 WSW 7 11 29.85 1011 10 16 N/A
6:35 pm 18:35 Clear 39 4 32 undefined 75 75 WSW 7 11 29.85 1011 10 16 N/A
6:55 pm 18:55 Clear 37 3 32 undefined 81 81 WSW 6 9 29.85 1011 10 16 N/A
7:15 pm 19:15 Clear 37 3 32 undefined 81 81 WSW 6 9 29.85 1011 10 16 N/A
7:35 pm 19:35 Clear 36 2 30 -1 81 81 WSW 6 9 29.85 1011 10 16 N/A
7:55 pm 19:55 Clear 37 3 32 undefined 81 81 WSW 3 6 29.88 1012 10 16 N/A
8:15 pm 20:15 Clear 36 2 32 undefined 87 87 W 6 9 29.85 1011 10 16 N/A
8:35 pm 20:35 Clear 37 3 32 undefined 81 81 WSW 5 7 29.85 1011 10 16 N/A
8:55 pm 20:55 Clear 39 4 32 undefined 75 75 SW 6 9 29.85 1011 10 16 N/A
9:15 pm 21:15 Clear 37 3 32 undefined 81 81 SW 5 7 29.88 1012 10 16 N/A
9:35 pm 21:35 Clear 37 3 34 1 87 87 SW 6 9 29.88 1012 10 16 N/A
9:55 pm 21:55 Clear 39 4 34 1 81 81 SW 9 15 29.88 1012 10 16 N/A
10:15 pm 22:15 Clear 39 4 34 1 81 81 SW 8 13 29.88 1012 10 16 N/A
10:35 pm 22:35 Partly Cloudy 41 5 34 1 76 76 SW 9 15 29.88 1012 10 16 N/A
10:55 pm 22:55 Mostly Cloudy 41 5 34 1 76 76 SW 8 13 29.88 1012 10 16 N/A
11:15 pm 23:15 Mostly Cloudy 41 5 34 1 76 76 SW 8 13 29.88 1012 10 16 N/A
11:35 pm 23:35 Partly Cloudy 41 5 34 1 76 76 SW 9 15 29.88 1012 10 16 N/A
11:55 pm 23:55 Mostly Cloudy 41 5 34 1 76 76 SW 7 11 29.88 1012 10 16 N/A

Powered by AerisWeather